Погода в Данао

Филиппины     9°33′33″N   123°45′26″E
темп.,
°C
ветер,
м/с
пор.,
м/с
влажн.,
%
обл.,
%
осадки,
мм/ч
давл.,
гПа
погр.,
м
20 апреля, вт
вт2023:00+28юз7878100 0.0 1007804
02:00+28юз6876100 0.0 1006739
05:00+28юз7877100 0.0 1006737
08:00+28юз7876100 0.0 1008707
11:00+28зюз5674100 0.2 1008732
14:00+29юз7774100 1.1 1006733
17:00+29зюз6777100 0.4 1006570
20:00+28юз8880100 0.9 1008632
21 апреля, ср
ср2123:00+28юз101080100 0.8 1009712
02:00+27юз111081100 1.2 1007673
05:00+28юз101078100 0.0 1008743
08:00+28юз91078100 0.0 1010769
11:00+28юз101079100 0.0 1009775
14:00+28юз11107917 0.2 1007588
17:00+29юз111177100 0.1 1006529
20:00+28юз8879100 0.2 1009630
22 апреля, чт
чт2223:00+28юз91080100 0.0 1009742
02:00+28юз101080100 0.0 1007824
05:00+28юз8978100 0.1 1007763
08:00+28юз10117998 0.3 1009838
11:00+28юз101179100 0.0 1008725
14:00+28юз111178100 0.4 1006543
17:00+29зюз787274 0.3 1005244
20:00+29зюз797564 0.3 1008442
23 апреля, пт
пт2323:00+28юз7117497 0.0 1008857
02:00+28юз897711 0.0 1007762
05:00+28юз91076100 0.1 1007793
08:00+28юз91078100 0.1 1009797
11:00+28юз9979100 0.1 1008755
14:00+29юз8878100 0.4 1006416
17:00+29з5776100 0.9 1006386
20:00+28зюз5577100 3.1 1008414
24 апреля, сб
сб2423:00+28зюз5579100 2.9 1008353
02:00+28юз6777100 5.9 1007567
05:00+28юз6677100 0.0 1008564
08:00+28юз5674100 0.1 1010543
11:00+28юз5675100 0.1 1009484
14:00+28зюз7776100 1.7 1007616
17:00+27юз7780100 0.3 1008472
20:00+28зюз4573100 0.3 1009505